Showing default

KUIPER-00137, 65963

Orbit data source: Space-Track

KUIPER-00137, 65963 is a payload satellite owned by Kuiper Systems (US) in LEO that was launched on Tue, 14 Oct 2025 UTC via an FALCON 9 launch vehicle from the Air Force Eastern Test Range (AFETR). Payload-class satellites include a variety of spacecraft equipped with specific instruments for various scientific and technological missions. These include communications satellites like Starlink; space stations such as the ISS; scientific satellites like the Hubble; Earth observation satellites from companies like Planet Labs, Umbra, and HawkEye 360; GPS; miniature CubeSats for education and research; and military/defense satellites.

Loading next visibility...
Identifier
65963, 2025-228S
Orbit
LEO
Country
Flag of USUS
Related business
Manufacturer
Kuiper Systems
Mission
Operational Commercial Communications
Bus & Motor
KUIPER, Unknown motor
Mass
~490 kg wet, ~490 kg dry
Launch date (UTC)
2025-10-14 (8 months ago)
Launch vehicle
FALCON 9
Launch site
Air Force Eastern Test Range (AFETR)
Object type
Payload
Rocket body
Debris
Shape & HBR
Box + 2 Pan, 3.4 m
Radar Cross Section
2.326 m², Large (>1 m²)

Expand to show TLE details & history
Last TLE update: 1 day ago

TLE from 1 day ago
0 KUIPER-00137
1 65963U 25228S   26170.54653479  .00001529  00000-0  22951-3 0  9996
2 65963  51.9036 255.2282 0000398  95.4115 264.6893 14.79931678 38527
Epoch: 2026-06-19T13:07Z
TLE epoch observation values (Epoch: 2026-06-19T13:07:00.605Z)
Latitude
-0.00002°
Longitude
150.70171°
Altitude
630.313 km
Speed
7.544 km/s
True Right ascension
17h 00m 54s
True Declination
0° 00' 00"
Sunlit
Object was in full shadow at epoch
Visualization orbit readout
Latitude
Unknown
Longitude
Unknown
Altitude
Unknown
Speed
Unknown
Apparent Right ascension
Unknown
Apparent Declination
Unknown
Sunlit
N/A
Visualization observer readout
Local Sidereal Time
07:17:29
Azimuth
Unknown
Elevation
Unknown
Doppler factor
Unknown
Orbital elements
Apogee altitude
630.269 km
Perigee altitude
629.711 km
Semi-major axis
7,008.127 km
Eccentricity
0.00004
Inclination
51.9036°
RAAN
255.2282°
Arg. of periapsis
95.4115°
True anomaly
264.68476°
Mean anomaly
264.6893°
Eccentric anomaly
264.68703°
Mean motion
3.69948 °/min
Orbital period
97.31 mins
BSTAR
0.00022951
Loading maneuver chart data...
Computing Atmospheric mass density...
Loading historical data...
Loading historical data...
Loading historical data...
Loading historical data...
Loading historical data...
Loading historical data...
Loading historical data...

Documentation

Showing up to 5 results
|